Weather History for Millington, TN

Change the Weather History Date:

Tuesday, March 5, 2013

  Actual Average Record
Temperature  
Mean Temperature 50 °F -  
Max Temperature 64 °F 55 °F 75 °F (2004)
Min Temperature 37 °F 38 °F 26 °F (2007)
Degree Days  
Heating Degree Days 14    
Moisture  
Dew Point 41 °F    
Average Humidity 70    
Maximum Humidity 94    
Minimum Humidity 46    
Precipitation  
Precipitation 0.00 in - - ()
Sea Level Pressure  
Sea Level Pressure 29.94 in    
Wind  
Wind Speed 12 mph (West)    
Max Wind Speed 23 mph    
Max Gust Speed 32 mph    
Visibility 9 miles    
Events Rain    
Averages and records for this station are not official NWS values.
T = Trace of Precipitation, MM = Missing Value Source: NWS Daily Summary

Daily Weather History Graph

Daily Weather History Graph

Search for Another Location

Airport:

Trip Planner

Search our weather history database for the weather conditions in past years. The results will help you decide how hot, cold, wet, or windy it might be!

Date:

Astronomy

Mar. 05, 2013 Rise Set
Actual Time 6:23 AM CST 5:58 PM CST
Civil Twilight 5:58 AM CST 6:24 PM CST
Nautical Twilight 5:28 AM CST 6:53 PM CST
Astronomical Twilight 4:59 AM CST 7:23 PM CST
Moon 1:26 AM CST (3/5) 11:47 AM CST (3/5)
Length of Visible Light 12h 26m
Length of Day
11h 35m
Last Quarter, 40% of the Moon is Illuminated
Mar 5
Last Quarter
Mar 11
New
Mar 19
First Quarter
Mar 27
Full
Apr 2
Last Quarter

Hourly Weather History & Observations

Time (CST) Temp. Windchill Dew Point Humidity Pressure Visibility Wind Dir Wind Speed Gust Speed Precip Events Conditions
12:55 AM 60.8 °F - 50.0 °F 68% 29.77 in 10.0 mi South 8.1 mph - N/A   Scattered Clouds
2:15 AM 64.4 °F - 55.4 °F 73% 29.77 in 10.0 mi SSW 12.7 mph - N/A   Overcast
2:35 AM 64.4 °F - 55.4 °F 73% 29.77 in 10.0 mi South 13.8 mph - N/A   Overcast
2:55 AM 64.4 °F - 55.4 °F 73% 29.77 in 10.0 mi SSW 13.8 mph - N/A   Overcast
3:15 AM 64.4 °F - 55.4 °F 73% 29.77 in 10.0 mi South 9.2 mph - N/A   Overcast
3:35 AM 64.4 °F - 55.4 °F 73% 29.78 in 10.0 mi SSW 8.1 mph - N/A   Overcast
3:55 AM 62.6 °F - 55.4 °F 77% 29.77 in 10.0 mi SSW 10.4 mph - N/A   Overcast
4:15 AM 62.6 °F - 55.4 °F 77% 29.77 in 10.0 mi SSW 9.2 mph - N/A   Overcast
4:35 AM 62.6 °F - 55.4 °F 77% 29.77 in 10.0 mi SSW 6.9 mph - N/A   Overcast
4:55 AM 62.6 °F - 57.2 °F 82% 29.77 in 9.0 mi SSW 9.2 mph - N/A   Overcast
5:55 AM 60.8 °F - 57.2 °F 88% 29.79 in 10.0 mi SW 11.5 mph - N/A   Overcast
7:55 AM 50.0 °F - 48.2 °F 94% 29.85 in 5.0 mi WNW 13.8 mph - N/A Rain Light Rain
8:55 AM 46.4 °F 38.5 °F 44.6 °F 93% 29.88 in 5.0 mi NW 21.9 mph 26.5 mph N/A Rain Light Rain
9:55 AM 41.0 °F 32.2 °F 39.2 °F 93% 29.95 in 5.0 mi WNW 18.4 mph - N/A Rain Light Rain
10:55 AM 41.0 °F 31.6 °F 37.4 °F 87% 29.97 in 10.0 mi NW 20.7 mph 28.8 mph N/A Rain Light Rain
11:55 AM 42.8 °F 36.2 °F 37.4 °F 81% 30.00 in 10.0 mi NW 12.7 mph - N/A   Overcast
12:55 PM 44.6 °F 37.8 °F 35.6 °F 71% 30.01 in 10.0 mi WNW 15.0 mph - N/A   Overcast
1:55 PM 44.6 °F 36.4 °F 33.8 °F 66% 30.01 in 10.0 mi WNW 20.7 mph - N/A   Overcast
2:55 PM 46.4 °F 39.5 °F 32.0 °F 57% 30.03 in 10.0 mi WNW 17.3 mph - N/A   Mostly Cloudy
3:55 PM 48.2 °F - 30.2 °F 50% 30.04 in 10.0 mi WNW 23.0 mph 32.2 mph N/A   Scattered Clouds
4:55 PM 46.4 °F 40.1 °F 26.6 °F 46% 30.06 in 10.0 mi West 15.0 mph - N/A   Scattered Clouds
5:55 PM 44.6 °F 38.8 °F 24.8 °F 46% 30.09 in 10.0 mi West 11.5 mph - N/A   Partly Cloudy
6:55 PM 42.8 °F 37.0 °F 24.8 °F 49% 30.10 in 10.0 mi West 10.4 mph - N/A   Clear
7:55 PM 41.0 °F 35.2 °F 26.6 °F 57% 30.12 in 10.0 mi WNW 9.2 mph - N/A   Clear
8:55 PM 39.2 °F 30.5 °F 24.8 °F 56% 30.15 in 10.0 mi NW 16.1 mph - N/A   Clear
9:55 PM 37.4 °F 30.3 °F 24.8 °F 60% 30.17 in 10.0 mi NW 10.4 mph - N/A   Partly Cloudy
10:55 PM 37.4 °F 30.3 °F 24.8 °F 60% 30.18 in 10.0 mi WNW 10.4 mph - N/A   Clear
11:55 PM 37.4 °F 29.8 °F 23.0 °F 56% 30.18 in 10.0 mi WNW 11.5 mph - N/A   Clear